FW8034 Weather Reports


time (UTC)temp
F
wind
direction
speed
knots
gust
knots
rain 1hr
in
rain 24hr
in
rain mn
in
humidity
%
barometer
mb
20260505200327 59 273 2.6 4.3 0.00 0.02 0.02 33 1046.8
20260505195822 59 286 6.1 9.6 0.00 0.02 0.02 33 1046.8
20260505195319 60 285 2.6 7.8 0.00 0.02 0.02 36 1046.9
20260505194817 60 328 6.1 9.6 0.00 0.02 0.02 34 1046.9
20260505194314 60 276 3.5 8.7 0.00 0.02 0.02 35 1046.9
20260505193809 60 300 5.2 9.6 0.00 0.02 0.02 33 1047.0
20260505193307 60 283 5.2 7.0 0.00 0.02 0.02 33 1046.8
20260505192805 60 247 6.1 9.6 0.00 0.02 0.02 34 1047.2
20260505192305 59 325 2.6 4.3 0.00 0.02 0.02 39 1047.2
20260505191800 59 267 7.0 8.7 0.00 0.02 0.02 39 1047.2
20260505191258 59 258 4.3 9.6 0.00 0.02 0.02 40 1047.2
20260505190754 60 271 7.8 9.6 0.00 0.02 0.02 34 1047.0
20260505190250 60 271 5.2 7.0 0.00 0.02 0.02 40 1047.2
20260505185746 58 297 6.1 7.0 0.00 0.02 0.02 39 1047.3
20260505185243 58 264 3.5 6.1 0.00 0.02 0.02 38 1047.3
20260505184739 58 295 2.6 6.1 0.00 0.02 0.02 38 1047.5
20260505184236 58 253 6.1 7.0 0.00 0.02 0.02 38 1047.3
20260505183733 58 298 0.0 4.3 0.00 0.02 0.02 39 1047.5
20260505183230 59 247 3.5 8.7 0.00 0.02 0.02 42 1047.5
20260505182727 58 292 2.6 7.8 0.00 0.02 0.02 37 1047.7
20260505182224 57 257 4.3 6.1 0.00 0.02 0.02 43 1047.3
20260505181720 57 266 1.7 4.3 0.00 0.02 0.02 44 1047.7
20260505181218 57 263 2.6 6.1 0.00 0.02 0.02 41 1048.0
20260505180714 57 287 2.6 6.1 0.00 0.02 0.02 40 1047.8
20260505180211 56 264 1.7 6.1 0.00 0.02 0.02 45 1048.0
20260505175707 56 271 3.5 8.7 0.00 0.02 0.02 41 1048.0
20260505175203 56 292 7.8 9.6 0.00 0.02 0.02 40 1048.0
20260505174700 56 309 3.5 5.2 0.00 0.02 0.02 37 1048.0
20260505174156 58 245 5.2 7.8 0.00 0.02 0.02 40 1047.9
20260505173653 57 227 2.6 2.6 0.00 0.02 0.02 42 1048.1
20260505173150 56 328 3.5 6.1 0.00 0.02 0.02 42 1048.5
20260505172647 57 278 6.1 9.6 0.00 0.02 0.02 39 1048.2
20260505172143 57 273 2.6 4.3 0.00 0.02 0.02 40 1048.3
20260505171638 57 247 2.6 7.0 0.00 0.02 0.02 42 1048.2
20260505171135 56 299 2.6 2.6 0.00 0.02 0.02 40 1048.3
20260505170632 56 247 2.6 8.7 0.00 0.02 0.02 41 1048.4
20260505170129 56 275 2.6 4.3 0.00 0.02 0.02 45 1048.4
20260505165624 57 282 1.7 6.1 0.00 0.02 0.02 40 1048.3
20260505165120 56 288 1.7 4.3 0.00 0.02 0.02 46 1048.2
20260505164615 57 282 2.6 6.1 0.00 0.02 0.02 41 1048.2
20260505164114 56 298 1.7 2.6 0.00 0.02 0.02 42 1048.3
20260505163612 57 295 0.0 2.6 0.00 0.02 0.02 45 1048.3
20260505163109 56 291 0.0 0.9 0.00 0.02 0.02 42 1048.3
20260505162606 55 85 2.6 2.6 0.00 0.02 0.02 43 1048.3
20260505162104 55 300 2.6 6.1 0.00 0.02 0.02 44 1048.3
20260505161601 54 269 3.5 5.2 0.00 0.02 0.02 47 1048.2
20260505161058 55 298 0.0 1.7 0.00 0.02 0.02 48 1048.2
20260505160556 53 265 3.5 5.2 0.00 0.02 0.02 45 1048.3
20260505153032 52 326 1.7 4.3 0.00 0.02 0.02 47 1048.3
20260505152529 53 276 4.3 5.2 0.00 0.02 0.02 46 1048.3
20260505152025 53 314 0.9 1.7 0.00 0.02 0.02 44 1048.2
20260505151520 53 299 0.0 0.9 0.00 0.02 0.02 49 1048.3
20260505151018 53 293 0.9 1.7 0.00 0.02 0.02 50 1048.1
20260505150514 53 291 0.9 1.7 0.00 0.02 0.02 50 1048.1
20260505140439 51 283 0.9 1.7 0.00 0.02 0.02 52 1047.6
20260505124852 49 301 0.0 0.0 0.00 0.02 0.02 79 1046.4
20260505124349 48 306 0.0 0.0 0.00 0.02 0.02 80 1046.5
20260505123845 48 306 0.0 0.0 0.00 0.02 0.02 82 1046.6
20260505123342 47 298 0.0 0.0 0.00 0.02 0.02 82 1046.7
20260505122838 47 321 0.0 0.0 0.00 0.02 0.02 85 1046.8
20260505122336 46 304 0.0 0.0 0.00 0.02 0.02 87 1046.9
20260505121832 45 304 0.0 0.0 0.00 0.02 0.02 89 1047.0
20260505121329 45 304 0.0 0.0 0.00 0.02 0.02 90 1046.9
20260505120825 44 299 0.0 0.0 0.00 0.02 0.02 91 1047.0
20260505120321 45 307 0.0 0.0 0.00 0.02 0.02 93 1047.0
20260505115820 43 314 0.0 0.0 0.00 0.02 0.02 96 1046.8
20260505115318 41 304 0.0 0.0 0.00 0.02 0.02 96 1047.1
20260505114815 41 303 0.0 0.0 0.00 0.02 0.02 95 1047.0
20260505114312 40 303 0.0 0.0 0.00 0.02 0.02 95 1047.0
20260505113808 40 296 0.0 0.0 0.00 0.02 0.02 95 1047.0
20260505113304 40 299 0.0 0.0 0.00 0.02 0.02 95 1046.8
20260505112800 40 299 0.0 0.0 0.00 0.02 0.02 95 1047.0
20260505112258 40 302 0.0 0.0 0.00 0.02 0.02 94 1046.8
20260505111753 39 301 0.0 0.0 0.00 0.02 0.02 93 1046.7
20260505111249 40 301 0.0 0.0 0.00 0.02 0.02 93 1046.8
20260505110745 41 299 0.0 0.0 0.00 0.02 0.02 93 1046.6
20260505110243 40 302 0.0 0.0 0.00 0.02 0.02 92 1046.5
20260505102218 43 302 0.0 0.0 0.00 0.02 0.02 88 1046.1
20260505101716 44 302 0.0 0.0 0.00 0.02 0.02 88 1046.1
20260505101212 44 302 0.0 0.0 0.00 0.02 0.02 86 1045.8
20260505100709 44 302 0.0 0.0 0.00 0.02 0.02 83 1045.7
20260505100206 45 302 0.0 0.0 0.00 0.02 0.02 85 1045.7
20260505095701 45 302 0.0 0.0 0.00 0.02 0.02 84 1045.9
20260505095200 45 306 0.0 0.0 0.00 0.02 0.02 82 1045.7
20260505094655 45 303 0.0 0.0 0.00 0.02 0.02 80 1045.8
20260505094151 46 301 0.0 0.0 0.00 0.02 0.02 79 1045.8
20260505093648 46 299 0.0 0.0 0.00 0.02 0.02 79 1046.1
20260505093145 47 298 0.0 0.0 0.00 0.02 0.02 74 1045.6
20260505092642 48 312 0.0 0.0 0.00 0.02 0.02 65 1045.2
20260505092141 48 3 0.0 0.9 0.00 0.02 0.02 65 1045.1
20260505091637 48 306 0.0 0.9 0.00 0.02 0.02 65 1045.0
20260505091135 48 324 0.0 0.9 0.00 0.02 0.02 65 1045.0
20260505090633 48 345 0.0 1.7 0.00 0.02 0.02 63 1044.8
20260505090131 48 318 0.0 0.9 0.00 0.02 0.02 66 1044.7
20260505085628 48 120 0.9 1.7 0.00 0.02 0.02 68 1044.8
20260505085126 48 337 0.9 0.9 0.00 0.02 0.02 73 1044.8
20260505084624 48 339 0.0 0.9 0.00 0.02 0.02 79 1044.8
20260505084122 48 292 0.0 0.0 0.00 0.02 0.02 76 1044.8
20260505083619 48 271 0.0 0.0 0.00 0.02 0.02 74 1044.4
20260505083115 48 315 0.0 1.7 0.00 0.02 0.02 75 1043.5
20260505082611 48 48 2.6 4.3 0.00 0.02 0.02 77 1043.3
20260505082109 48 43 0.9 2.6 0.00 0.02 0.02 78 1043.3
20260505081604 48 346 0.0 0.9 0.00 0.02 0.02 77 1044.2
20260505081102 48 282 0.9 1.7 0.00 0.02 0.02 77 1044.7
20260505080558 49 270 0.9 1.7 0.00 0.02 0.02 77 1044.7
20260505080055 49 277 2.6 2.6 0.05 0.02 0.02 73 1043.9
20260505075550 49 308 0.9 4.3 0.05 0.02 0.02 72 1042.9
20260505075048 49 309 0.0 1.7 0.00 0.01 0.01 73 1043.5
20260505074544 49 290 1.7 1.7 0.00 0.01 0.01 73 1043.4
20260505074042 49 352 1.7 2.6 0.00 0.01 0.01 73 1042.8
20260505073539 49 342 0.0 1.7 0.00 0.01 0.01 73 1043.2
20260505073038 49 302 0.0 1.7 0.00 0.01 0.01 73 1043.8
20260505072533 49 280 0.0 0.9 0.00 0.01 0.01 74 1044.1
20260505072030 49 265 1.7 2.6 0.00 0.01 0.01 75 1044.2
20260505071525 49 275 1.7 1.7 0.00 0.01 0.01 76 1044.5
20260505071024 48 287 1.7 2.6 0.00 0.01 0.01 76 1044.2
20260505070520 48 308 0.0 0.0 0.00 0.01 0.01 80 1043.9
20260505070016 48 297 0.0 0.9 0.00 0.01 0.01 81 1044.5
20260505065512 47 285 0.0 0.0 0.00 0.01 0.01 83 1044.9
20260505065009 47 301 0.0 0.0 0.00 0.01 0.01 85 1045.0
20260505064506 47 287 0.0 0.9 0.00 0.01 0.01 86 1045.0
20260505064005 47 296 0.0 0.0 0.00 0.01 0.01 85 1045.1
20260505063501 48 284 0.9 1.7 0.00 0.01 0.01 85 1045.1
20260505062957 48 278 0.9 1.7 0.00 0.01 0.01 81 1045.0
20260505062454 49 299 0.0 0.0 0.00 0.01 0.01 79 1044.7
20260505061951 49 272 0.9 0.9 0.07 0.01 0.01 73 1044.6
20260505061449 50 290 0.9 1.7 0.07 0.01 0.01 66 1044.7
20260505060946 51 346 0.9 1.7 0.00 0.00 0.00 61 1044.4
20260505060443 51 15 1.7 2.6 0.00 0.00 0.00 58 1044.6
20260505055940 51 273 1.7 1.7 0.00 0.00 0.00 58 1044.8
20260505055436 51 315 2.6 4.3 0.00 0.00 0.00 57 1044.8
20260505054932 51 278 4.3 6.1 0.00 0.00 0.00 56 1044.7
20260505054430 51 316 1.7 1.7 0.00 0.00 0.00 56 1044.2
20260505053928 52 316 1.7 1.7 0.00 0.00 0.00 55 1044.0
20260505053425 52 302 3.5 5.2 0.00 0.00 0.00 54 1044.2
20260505052921 52 11 0.9 4.3 0.00 0.00 0.00 54 1044.1
20260505052418 52 260 0.9 4.3 0.00 0.00 0.00 56 1043.9
20260505051916 52 273 0.9 2.6 0.00 0.00 0.00 55 1043.6
20260505051413 52 356 3.5 7.0 0.00 0.00 0.00 54 1043.8
20260505050911 52 289 1.7 4.3 0.00 0.00 0.00 55 1043.8
20260505050409 52 224 2.6 7.0 0.00 0.00 0.00 53 1043.6
20260505041336 53 229 0.9 4.3 0.00 0.00 0.00 55 1043.5
20260505040833 54 11 3.5 7.0 0.00 0.00 0.00 53 1043.6
20260505040331 55 324 1.7 7.0 0.00 0.00 0.00 51 1043.8
20260505035827 55 265 4.3 7.8 0.00 0.00 0.00 48 1043.4
20260505035323 55 275 3.5 6.1 0.00 0.00 0.00 47 1043.4
20260505034821 56 351 5.2 14.8 0.00 0.00 0.00 46 1043.6
20260505034317 56 320 3.5 7.0 0.00 0.00 0.00 46 1043.5
20260505033814 55 300 4.3 12.2 0.00 0.00 0.00 45 1043.2
20260505033311 55 298 2.6 5.2 0.00 0.00 0.00 46 1042.6
20260505032810 55 265 2.6 5.2 0.00 0.00 0.00 46 1042.9
20260505032305 56 282 4.3 8.7 0.00 0.00 0.00 45 1043.2
20260505031802 56 271 3.5 8.7 0.00 0.00 0.00 44 1043.1
20260505031253 56 290 4.3 7.0 0.00 0.00 0.00 44 1043.1
20260505030750 56 255 2.6 7.0 0.00 0.00 0.00 44 1042.9
20260505030246 56 320 2.6 6.1 0.00 0.00 0.00 44 1042.9
20260505025741 56 92 3.5 7.0 0.00 0.00 0.00 43 1042.6
20260505025240 56 283 1.7 7.8 0.00 0.00 0.00 44 1042.4
20260505024738 57 8 3.5 7.0 0.00 0.00 0.00 43 1042.4
20260505024235 57 301 4.3 8.7 0.00 0.00 0.00 43 1042.4
20260505023732 57 350 6.1 11.3 0.00 0.00 0.00 43 1042.2
20260505023229 57 14 3.5 9.6 0.00 0.00 0.00 43 1042.1
20260505022727 58 243 3.5 7.0 0.00 0.00 0.00 44 1042.5
20260505022224 58 312 6.1 11.3 0.00 0.00 0.00 42 1042.4
20260505021720 58 296 2.6 4.3 0.00 0.00 0.00 43 1042.0
20260505021218 58 39 2.6 11.3 0.00 0.00 0.00 42 1042.1
20260505020713 58 262 4.3 7.0 0.00 0.00 0.00 42 1041.8
20260505020209 58 258 4.3 9.6 0.00 0.00 0.00 41 1041.6
20260505015706 59 269 3.5 6.1 0.00 0.00 0.00 40 1041.4
20260505015202 59 247 3.5 6.1 0.00 0.00 0.00 40 1041.9
20260505014659 59 329 7.0 8.7 0.00 0.00 0.00 40 1041.6
20260505014156 60 257 4.3 9.6 0.00 0.00 0.00 39 1041.5
20260505013653 60 273 4.3 7.0 0.00 0.00 0.00 39 1041.2
20260505013150 60 266 5.2 6.1 0.00 0.00 0.00 40 1041.4
20260505012644 60 319 1.7 7.8 0.00 0.00 0.00 40 1041.1
20260505012140 61 35 1.7 7.0 0.00 0.00 0.00 40 1041.1
20260505011636 62 256 4.3 9.6 0.00 0.00 0.00 39 1040.6
20260505011133 63 247 5.2 9.6 0.00 0.00 0.00 37 1040.8
20260505010628 64 246 3.5 7.8 0.00 0.00 0.00 36 1040.2
20260505010125 64 315 3.5 7.8 0.00 0.00 0.00 35 1040.2
20260505005621 64 264 1.7 7.0 0.00 0.00 0.00 35 1040.1
20260505005118 64 118 2.6 6.1 0.00 0.00 0.00 35 1040.1
20260505004615 65 271 4.3 7.0 0.00 0.00 0.00 34 1040.2
20260505004112 65 305 5.2 12.2 0.00 0.00 0.00 34 1039.8
20260505003609 66 255 2.6 11.3 0.00 0.00 0.00 33 1039.6
20260505003107 66 280 0.9 6.1 0.00 0.00 0.00 34 1039.4
20260505002602 67 263 5.2 7.8 0.00 0.00 0.00 32 1039.3
20260505002101 68 149 2.6 6.1 0.00 0.00 0.00 32 1039.0
20260505001558 69 1 4.3 6.1 0.00 0.00 0.00 31 1039.1
20260505001055 69 357 4.3 5.2 0.00 0.00 0.00 32 1038.9
20260505000552 69 283 5.2 11.3 0.00 0.00 0.00 31 1039.0
20260505000050 70 38 9.6 13.9 0.00 0.00 0.00 31 1039.1
20260504235546 71 244 4.3 9.6 0.00 0.00 0.00 31 1038.9
20260504235043 72 44 3.5 12.2 0.00 0.00 0.00 32 1038.7
20260504234540 73 268 0.9 7.0 0.00 0.00 0.00 31 1038.4
20260504234037 73 97 2.6 8.7 0.00 0.00 0.00 31 1038.5
20260504233532 73 254 6.1 13.0 0.00 0.00 0.00 30 1038.4
20260504233029 74 299 4.3 6.1 0.00 0.00 0.00 30 1038.3
20260504232526 75 324 4.3 12.2 0.00 0.00 0.00 29 1038.4
20260504232024 74 264 4.3 7.8 0.00 0.00 0.00 30 1038.3
20260504231521 75 319 4.3 7.8 0.00 0.00 0.00 30 1038.2
20260504231016 75 268 9.6 13.0 0.00 0.00 0.00 29 1038.1
20260504230513 75 238 3.5 8.7 0.00 0.00 0.00 30 1038.0
20260504230012 76 244 3.5 13.9 0.00 0.00 0.00 28 1038.1
20260504225509 77 245 2.6 7.0 0.00 0.00 0.00 29 1038.0
20260504225006 76 298 2.6 7.0 0.00 0.00 0.00 28 1037.7
20260504224502 77 283 4.3 6.1 0.00 0.00 0.00 29 1037.9
20260504223959 76 246 3.5 8.7 0.00 0.00 0.00 28 1037.8
20260504223456 77 282 6.1 12.2 0.00 0.00 0.00 28 1037.4
20260504222951 77 1 4.3 13.0 0.00 0.00 0.00 28 1037.3
20260504222449 77 267 2.6 7.8 0.00 0.00 0.00 29 1037.4
20260504221946 77 237 7.0 9.6 0.00 0.00 0.00 28 1037.3
20260504221443 77 287 3.5 11.3 0.00 0.00 0.00 29 1037.1
20260504220941 77 300 7.0 8.7 0.00 0.00 0.00 28 1037.2
20260504220437 78 244 3.5 7.0 0.00 0.00 0.00 29 1037.0
20260504215934 78 298 3.5 7.0 0.00 0.00 0.00 28 1036.8
20260504215431 79 211 0.9 11.3 0.00 0.00 0.00 30 1036.7
20260504214927 79 265 4.3 7.8 0.00 0.00 0.00 29 1036.7
20260504214424 80 304 1.7 5.2 0.00 0.00 0.00 30 1036.5
20260504213920 80 290 2.6 4.3 0.00 0.00 0.00 31 1036.6
20260504213416 79 272 4.3 8.7 0.00 0.00 0.00 32 1036.6
20260504212914 79 283 5.2 13.9 0.00 0.00 0.00 32 1036.3
20260504212409 80 249 8.7 17.4 0.00 0.00 0.00 31 1036.3
20260504211908 81 261 5.2 13.9 0.00 0.00 0.00 33 1036.0
20260504211404 80 337 5.2 9.6 0.00 0.00 0.00 33 1036.1
20260504210901 80 323 3.5 8.7 0.00 0.00 0.00 33 1036.0
20260504210358 80 253 9.6 13.0 0.00 0.00 0.00 32 1036.1
20260504205855 80 266 6.1 8.7 0.00 0.00 0.00 32 1035.9
20260504205353 80 306 5.2 18.2 0.00 0.00 0.00 33 1036.3
20260504204851 80 258 4.3 14.8 0.00 0.00 0.00 33 1035.9
20260504204349 80 281 7.0 11.3 0.00 0.00 0.00 33 1036.0
20260504203848 79 262 5.2 7.0 0.00 0.00 0.00 34 1036.0
20260504203344 79 300 3.5 11.3 0.00 0.00 0.00 35 1036.3
20260504202840 79 278 5.2 11.3 0.00 0.00 0.00 33 1035.9
20260504202338 79 278 7.0 12.2 0.00 0.00 0.00 34 1036.3
20260504201834 80 241 6.1 7.8 0.00 0.00 0.00 31 1035.9
20260504201331 83 292 8.7 13.9 0.00 0.00 0.00 29 1036.1
20260504200829 83 271 6.1 9.6 0.00 0.00 0.00 29 1035.9